Location: Peterborough
(44.3091°N, 78.3197°W)
Time: 06:23:07
(UTC-04:00)

Vanguard 2 - Pass Details

Date: 24 March 2023
Orbit: 552 x 2926 km, 32.9° (Epoch: 04 June)

Event Time Altitude Azimuth Distance (km) Brightness Sun altitude
Rises 08:34:18 0° 247° (WSW) 6,702 11.8 14.3°
Reaches altitude 10° 08:39:13 10° 243° (WSW) 5,536 11.5 15.1°
Maximum altitude 08:54:01 48° 177° (S) 2,645 10.7 17.7°
Drops below altitude 10° 09:03:48 10° 107° (ESE) 3,745 13.5 19.4°
Sets 09:06:28 0° 101° (E) 4,446 13.0 19.8°
